When you browse on this site, cookies collect data to enhance your experience and personalize the content and advertising you see.
Visit our Privacy Policy to learn more. By continuing to use the site, you agree to this use of cookies and data.
  • en Suisse
  • Liste des pays
  • À 7 jours
  • Température de l'eau
  • Carte météo
  • Widgets météo
  • user-avatar
    Se connecter

    Météo par heure à Bulandino

    Ce jour, 19 Février, Mercredi

    Heure Température Précipitation Vent Pression Humidité
    00:00 0°C° 0.1 mm 3 m/s 738 mmHg 98%
    01:00 0°C° 0.1 mm 3 m/s 738 mmHg 98%
    02:00 0°C° 0 mm 3 m/s 738 mmHg 98%
    03:00 0°C° 0 mm 3 m/s 738 mmHg 98%
    04:00 -1°C° 0 mm 4 m/s 738 mmHg 98%
    05:00 -1°C° 0 mm 4 m/s 738 mmHg 97%
    06:00 -1°C° 0.1 mm 4 m/s 738 mmHg 97%
    07:00 -1°C° 0.1 mm 4 m/s 739 mmHg 97%
    08:00 0°C° 0 mm 4 m/s 739 mmHg 97%
    09:00 0°C° 0 mm 4 m/s 739 mmHg 95%
    10:00 0°C° 0 mm 4 m/s 739 mmHg 93%
    11:00 0°C° 0 mm 5 m/s 739 mmHg 92%
    12:00 0°C° 0 mm 5 m/s 739 mmHg 91%
    13:00 0°C° 0 mm 4 m/s 740 mmHg 91%
    14:00 0°C° 0 mm 4 m/s 740 mmHg 91%
    15:00 0°C° 0 mm 4 m/s 740 mmHg 92%
    16:00 -1°C° 0 mm 4 m/s 740 mmHg 93%
    17:00 -1°C° 0 mm 4 m/s 740 mmHg 94%
    18:00 0°C° 0 mm 3 m/s 740 mmHg 93%
    19:00 0°C° 0 mm 3 m/s 741 mmHg 93%
    20:00 -1°C° 0 mm 3 m/s 741 mmHg 92%
    21:00 -1°C° 0 mm 3 m/s 741 mmHg 91%
    22:00 -1°C° 0 mm 3 m/s 741 mmHg 90%
    23:00 -1°C° 0 mm 3 m/s 742 mmHg 90%

    Demain, 20 Février, Jeudi

    Heure Température Précipitation Vent Pression Humidité
    00:00 -1°C° 0 mm 3 m/s 742 mmHg 91%
    01:00 -1°C° 0 mm 3 m/s 742 mmHg 91%
    02:00 -1°C° 0 mm 2 m/s 743 mmHg 92%
    03:00 -1°C° 0 mm 2 m/s 743 mmHg 92%
    04:00 -2°C° 0 mm 2 m/s 743 mmHg 92%
    05:00 -2°C° 0 mm 2 m/s 743 mmHg 93%
    06:00 -2°C° 0 mm 3 m/s 743 mmHg 92%
    07:00 -1°C° 0 mm 3 m/s 744 mmHg 92%
    08:00 -1°C° 0 mm 3 m/s 744 mmHg 92%
    09:00 0°C° 0 mm 3 m/s 744 mmHg 90%
    10:00 0°C° 0 mm 3 m/s 744 mmHg 89%
    11:00 +1°C° 0 mm 3 m/s 745 mmHg 87%
    12:00 +1°C° 0 mm 3 m/s 745 mmHg 86%
    13:00 +2°C° 0 mm 3 m/s 745 mmHg 86%
    14:00 +3°C° 0 mm 2 m/s 745 mmHg 85%
    15:00 +2°C° 0 mm 2 m/s 745 mmHg 88%
    16:00 +1°C° 0 mm 2 m/s 745 mmHg 90%
    17:00 +1°C° 0 mm 2 m/s 745 mmHg 93%
    18:00 -1°C° 0 mm 2 m/s 746 mmHg 93%
    19:00 -1°C° 0 mm 2 m/s 746 mmHg 93%
    20:00 -1°C° 0 mm 2 m/s 746 mmHg 93%
    21:00 -1°C° 0 mm 2 m/s 747 mmHg 94%
    22:00 -1°C° 0 mm 2 m/s 747 mmHg 94%
    23:00 -1°C° 0 mm 2 m/s 747 mmHg 94%

    Après-demain, 21 Février, Vendredi

    Heure Température Précipitation Vent Pression Humidité
    00:00 -1°C° 0 mm 2 m/s 747 mmHg 94%
    01:00 -2°C° 0 mm 2 m/s 747 mmHg 94%
    02:00 -2°C° 0 mm 2 m/s 747 mmHg 94%
    03:00 -2°C° 0 mm 2 m/s 747 mmHg 94%
    04:00 -2°C° 0 mm 2 m/s 747 mmHg 94%
    05:00 -2°C° 0 mm 2 m/s 747 mmHg 94%
    06:00 -2°C° 0 mm 2 m/s 747 mmHg 94%
    07:00 -2°C° 0 mm 2 m/s 747 mmHg 94%
    08:00 -2°C° 0 mm 2 m/s 747 mmHg 94%
    15:00 +1°C° 0 mm 3 m/s 747 mmHg 87%
    16:00 0°C° 0 mm 3 m/s 747 mmHg 90%
    17:00 -1°C° 0 mm 3 m/s 746 mmHg 93%
    18:00 -1°C° 0 mm 3 m/s 747 mmHg 93%
    19:00 -2°C° 0 mm 3 m/s 747 mmHg 93%
    20:00 -2°C° 0 mm 3 m/s 748 mmHg 93%
    21:00 -2°C° 0 mm 3 m/s 748 mmHg 93%
    22:00 -2°C° 0 mm 2 m/s 748 mmHg 93%
    23:00 -2°C° 0 mm 2 m/s 748 mmHg 93%

    22 Février, Samedi

    Heure Température Précipitation Vent Pression Humidité
    00:00 -2°C° 0 mm 2 m/s 748 mmHg 93%
    01:00 -2°C° 0 mm 2 m/s 748 mmHg 94%
    02:00 -2°C° 0 mm 2 m/s 748 mmHg 94%
    03:00 -3°C° 0 mm 2 m/s 748 mmHg 94%
    04:00 -3°C° 0 mm 2 m/s 748 mmHg 95%
    05:00 -3°C° 0 mm 2 m/s 748 mmHg 95%
    06:00 -3°C° 0 mm 2 m/s 748 mmHg 94%
    07:00 -4°C° 0 mm 3 m/s 748 mmHg 93%
    08:00 -2°C° 0 mm 3 m/s 749 mmHg 92%
    09:00 -2°C° 0 mm 3 m/s 749 mmHg 87%
    10:00 -1°C° 0 mm 3 m/s 749 mmHg 83%
    11:00 -1°C° 0 mm 4 m/s 748 mmHg 79%
    12:00 -1°C° 0 mm 4 m/s 748 mmHg 77%
    13:00 -1°C° 0 mm 4 m/s 748 mmHg 76%
    14:00 -1°C° 0 mm 4 m/s 747 mmHg 74%
    15:00 -2°C° 0 mm 4 m/s 747 mmHg 76%
    16:00 -2°C° 0 mm 4 m/s 747 mmHg 77%
    17:00 -3°C° 0 mm 4 m/s 746 mmHg 79%
    18:00 -3°C° 0 mm 4 m/s 746 mmHg 79%
    19:00 -4°C° 0 mm 5 m/s 745 mmHg 79%
    20:00 -4°C° 0 mm 6 m/s 745 mmHg 79%
    21:00 -4°C° 0 mm 6 m/s 744 mmHg 79%
    22:00 -4°C° 0 mm 6 m/s 743 mmHg 79%
    23:00 -4°C° 0 mm 7 m/s 742 mmHg 80%

    23 Février, Dimanche

    Heure Température Précipitation Vent Pression Humidité
    00:00 -4°C° 0 mm 7 m/s 741 mmHg 81%
    01:00 -5°C° 0 mm 8 m/s 740 mmHg 82%
    02:00 -5°C° 0 mm 8 m/s 739 mmHg 83%
    03:00 -5°C° 0.2 mm 9 m/s 737 mmHg 86%
    04:00 -5°C° 0.2 mm 9 m/s 736 mmHg 89%
    05:00 -4°C° 0.2 mm 10 m/s 734 mmHg 92%
    06:00 -4°C° 0.8 mm 10 m/s 733 mmHg 92%
    07:00 -4°C° 0.8 mm 10 m/s 732 mmHg 92%
    08:00 -4°C° 0.8 mm 11 m/s 731 mmHg 92%
    09:00 -4°C° 0.8 mm 10 m/s 731 mmHg 93%
    10:00 -2°C° 0.8 mm 8 m/s 730 mmHg 94%
    11:00 -2°C° 0.8 mm 7 m/s 729 mmHg 95%
    12:00 -2°C° 0.2 mm 7 m/s 729 mmHg 89%
    13:00 -1°C° 0.2 mm 7 m/s 729 mmHg 83%
    14:00 +1°C° 0.2 mm 6 m/s 729 mmHg 77%
    15:00 -1°C° 0.1 mm 6 m/s 729 mmHg 78%
    16:00 -1°C° 0.1 mm 5 m/s 729 mmHg 79%
    17:00 -2°C° 0.1 mm 5 m/s 729 mmHg 79%
    18:00 -2°C° 0 mm 5 m/s 729 mmHg 81%
    19:00 -2°C° 0 mm 5 m/s 729 mmHg 83%
    20:00 -2°C° 0 mm 5 m/s 729 mmHg 84%
    21:00 -4°C° 0 mm 5 m/s 729 mmHg 85%
    22:00 -4°C° 0 mm 5 m/s 729 mmHg 85%
    23:00 -4°C° 0 mm 5 m/s 729 mmHg 86%

    24 Février, Lundi

    Heure Température Précipitation Vent Pression Humidité
    00:00 -4°C° 0 mm 5 m/s 729 mmHg 87%
    01:00 -5°C° 0 mm 5 m/s 729 mmHg 88%
    02:00 -4°C° 0 mm 4 m/s 729 mmHg 89%
    03:00 -4°C° 0 mm 4 m/s 729 mmHg 89%
    04:00 -4°C° 0 mm 4 m/s 729 mmHg 90%
    05:00 -4°C° 0 mm 4 m/s 729 mmHg 91%
    06:00 -4°C° 0 mm 4 m/s 729 mmHg 90%
    07:00 -4°C° 0 mm 4 m/s 728 mmHg 90%
    08:00 -4°C° 0 mm 3 m/s 728 mmHg 89%
    09:00 -2°C° 0 mm 3 m/s 728 mmHg 87%
    10:00 -2°C° 0 mm 2 m/s 728 mmHg 84%
    11:00 -1°C° 0 mm 2 m/s 728 mmHg 81%
    12:00 +1°C° 0 mm 1 m/s 728 mmHg 79%
    13:00 +1°C° 0 mm 1 m/s 728 mmHg 77%
    14:00 +1°C° 0 mm 0 m/s 727 mmHg 76%
    15:00 +1°C° 0 mm 1 m/s 728 mmHg 79%
    16:00 +1°C° 0 mm 1 m/s 728 mmHg 82%
    17:00 0°C° 0 mm 1 m/s 728 mmHg 85%
    18:00 0°C° 0 mm 1 m/s 729 mmHg 85%
    19:00 0°C° 0 mm 1 m/s 729 mmHg 86%
    20:00 0°C° 0 mm 1 m/s 729 mmHg 86%
    21:00 -2°C° 0 mm 2 m/s 730 mmHg 86%
    22:00 -2°C° 0 mm 2 m/s 730 mmHg 86%
    23:00 -2°C° 0 mm 3 m/s 730 mmHg 86%
    Voir plus